Time,TemperatureF,DewpointF,PressureIn,WindDirection,WindDirectionDegrees,WindSpeedMPH,WindSpeedGustMPH,Humidity,HourlyPrecipIn,Conditions,Clouds,dailyrainin,SoftwareType,DateUTC
2013-06-06 00:01:00,57.9,55.0,30.18,East,87,0.0,0.0,90,0.00,,,0.00,meteohub,2013-06-06 04:01:00,
2013-06-06 00:02:00,57.9,55.0,30.18,East,87,0.0,0.0,90,0.00,,,0.00,meteohub,2013-06-06 04:02:00,
2013-06-06 00:07:00,57.7,54.9,30.18,East,87,0.0,0.0,90,0.00,,,0.00,meteohub,2013-06-06 04:07:00,
2013-06-06 00:12:00,57.6,54.7,30.19,East,87,0.0,0.0,90,0.00,,,0.00,meteohub,2013-06-06 04:12:00,
2013-06-06 00:17:00,57.6,54.7,30.18,East,87,0.0,0.0,90,0.00,,,0.00,meteohub,2013-06-06 04:17:00,
2013-06-06 00:22:00,57.4,54.9,30.18,East,87,0.0,0.0,91,0.00,,,0.00,meteohub,2013-06-06 04:22:00,
2013-06-06 00:27:00,57.4,54.9,30.18,East,88,0.0,0.0,91,0.00,,,0.00,meteohub,2013-06-06 04:27:00,
2013-06-06 00:32:00,57.2,54.7,30.18,East,88,0.0,0.0,91,0.00,,,0.00,meteohub,2013-06-06 04:32:00,
2013-06-06 00:37:00,57.0,54.7,30.17,East,88,0.0,0.0,92,0.00,,,0.00,meteohub,2013-06-06 04:37:00,
2013-06-06 00:42:00,57.0,54.7,30.17,East,87,0.0,0.0,92,0.00,,,0.00,meteohub,2013-06-06 04:42:00,
2013-06-06 00:47:00,56.8,54.5,30.17,East,87,0.0,0.0,92,0.00,,,0.00,meteohub,2013-06-06 04:47:00,
2013-06-06 00:52:00,56.7,54.3,30.17,East,87,0.0,0.0,92,0.00,,,0.00,meteohub,2013-06-06 04:52:00,
2013-06-06 00:57:00,56.7,54.3,30.17,East,88,0.0,0.0,92,0.00,,,0.00,meteohub,2013-06-06 04:57:00,
2013-06-06 01:02:00,56.5,54.5,30.17,East,87,0.0,0.0,93,0.00,,,0.00,meteohub,2013-06-06 05:02:00,
2013-06-06 01:07:00,56.5,54.5,30.17,East,88,0.0,0.0,93,0.00,,,0.00,meteohub,2013-06-06 05:07:00,
2013-06-06 01:12:00,56.3,54.3,30.17,East,87,0.0,0.0,93,0.00,,,0.00,meteohub,2013-06-06 05:12:00,
2013-06-06 01:17:00,56.1,54.1,30.17,East,88,0.0,0.0,93,0.00,,,0.00,meteohub,2013-06-06 05:17:00,
2013-06-06 01:22:00,55.9,54.0,30.17,East,88,0.0,0.0,93,0.00,,,0.00,meteohub,2013-06-06 05:22:00,
2013-06-06 01:27:00,55.9,54.0,30.17,East,88,0.0,0.0,93,0.00,,,0.00,meteohub,2013-06-06 05:27:00,
2013-06-06 01:32:00,55.8,53.8,30.17,East,88,0.0,0.0,93,0.00,,,0.00,meteohub,2013-06-06 05:32:00,
2013-06-06 01:37:00,55.8,54.1,30.17,East,88,0.0,0.0,94,0.00,,,0.00,meteohub,2013-06-06 05:37:00,
2013-06-06 01:42:00,55.9,54.3,30.17,East,88,0.0,0.0,94,0.00,,,0.00,meteohub,2013-06-06 05:42:00,
2013-06-06 01:47:00,56.1,54.5,30.17,East,88,0.0,0.0,94,0.00,,,0.00,meteohub,2013-06-06 05:47:00,
2013-06-06 01:52:00,55.9,54.3,30.17,East,88,0.0,0.0,94,0.00,,,0.00,meteohub,2013-06-06 05:52:00,
2013-06-06 01:57:00,55.8,54.1,30.17,East,88,0.0,0.0,94,0.00,,,0.00,meteohub,2013-06-06 05:57:00,
2013-06-06 02:02:00,55.8,54.1,30.17,East,88,0.0,0.0,94,0.00,,,0.00,meteohub,2013-06-06 06:02:00,
2013-06-06 02:07:00,55.8,54.1,30.18,East,87,0.0,0.0,94,0.00,,,0.00,meteohub,2013-06-06 06:07:00,
2013-06-06 02:12:00,55.6,54.0,30.18,East,87,0.0,0.0,94,0.00,,,0.00,meteohub,2013-06-06 06:12:00,
2013-06-06 02:17:00,55.6,54.1,30.18,East,87,0.0,0.0,95,0.00,,,0.00,meteohub,2013-06-06 06:17:00,
2013-06-06 02:22:00,55.4,54.0,30.18,East,88,0.0,0.0,95,0.00,,,0.00,meteohub,2013-06-06 06:22:00,
2013-06-06 02:27:00,55.4,54.0,30.18,East,87,0.0,0.0,95,0.00,,,0.00,meteohub,2013-06-06 06:27:00,
2013-06-06 02:32:00,55.4,54.0,30.18,East,87,0.0,0.0,95,0.00,,,0.00,meteohub,2013-06-06 06:32:00,
2013-06-06 02:37:00,55.4,54.0,30.18,East,88,0.0,0.0,95,0.00,,,0.00,meteohub,2013-06-06 06:37:00,
2013-06-06 02:42:00,55.4,54.0,30.19,East,87,0.0,0.0,95,0.00,,,0.00,meteohub,2013-06-06 06:42:00,
2013-06-06 02:47:00,55.4,54.0,30.18,East,88,0.0,0.0,95,0.00,,,0.00,meteohub,2013-06-06 06:47:00,
2013-06-06 02:52:00,55.6,54.1,30.18,East,87,0.0,0.0,95,0.00,,,0.00,meteohub,2013-06-06 06:52:00,
2013-06-06 02:57:00,55.6,54.1,30.18,East,88,0.0,0.0,95,0.00,,,0.00,meteohub,2013-06-06 06:57:00,
2013-06-06 03:02:00,55.6,54.1,30.18,East,87,0.0,0.0,95,0.00,,,0.00,meteohub,2013-06-06 07:02:00,
2013-06-06 03:07:00,55.4,54.0,30.18,East,87,0.0,0.0,95,0.00,,,0.00,meteohub,2013-06-06 07:07:00,
2013-06-06 03:12:00,55.6,54.5,30.17,East,88,0.0,0.0,96,0.00,,,0.00,meteohub,2013-06-06 07:12:00,
2013-06-06 03:17:00,55.6,54.5,30.17,East,87,0.0,0.0,96,0.00,,,0.00,meteohub,2013-06-06 07:17:00,
2013-06-06 03:22:00,55.8,54.7,30.17,East,87,0.0,0.0,96,0.00,,,0.00,meteohub,2013-06-06 07:22:00,
2013-06-06 03:27:00,55.9,54.9,30.17,East,87,0.0,0.0,96,0.00,,,0.00,meteohub,2013-06-06 07:27:00,
2013-06-06 03:32:00,55.9,54.9,30.17,East,88,0.0,0.0,96,0.00,,,0.00,meteohub,2013-06-06 07:32:00,
2013-06-06 03:37:00,56.1,55.0,30.17,East,87,0.0,0.0,96,0.00,,,0.00,meteohub,2013-06-06 07:37:00,
2013-06-06 03:42:00,56.1,55.0,30.17,East,88,0.0,0.0,96,0.00,,,0.00,meteohub,2013-06-06 07:42:00,
2013-06-06 03:47:00,56.1,55.0,30.17,East,88,0.0,0.0,96,0.00,,,0.00,meteohub,2013-06-06 07:47:00,
2013-06-06 03:52:00,56.1,55.0,30.17,East,87,0.0,0.0,96,0.00,,,0.00,meteohub,2013-06-06 07:52:00,
2013-06-06 03:57:00,56.1,55.0,30.17,East,87,0.0,0.0,96,0.00,,,0.00,meteohub,2013-06-06 07:57:00,
2013-06-06 04:02:00,56.1,55.0,30.17,East,88,0.0,0.0,96,0.00,,,0.00,meteohub,2013-06-06 08:02:00,
2013-06-06 04:07:00,55.9,54.9,30.17,East,88,0.0,0.0,96,0.00,,,0.00,meteohub,2013-06-06 08:07:00,
2013-06-06 04:12:00,55.9,54.9,30.17,East,87,0.0,0.0,96,0.00,,,0.00,meteohub,2013-06-06 08:12:00,
2013-06-06 04:17:00,55.9,54.9,30.17,East,87,0.0,0.0,96,0.00,,,0.00,meteohub,2013-06-06 08:17:00,
2013-06-06 04:22:00,55.9,54.9,30.17,East,87,0.0,0.0,96,0.00,,,0.00,meteohub,2013-06-06 08:22:00,
2013-06-06 04:28:00,55.9,54.9,30.17,East,87,0.0,0.0,96,0.00,,,0.00,meteohub,2013-06-06 08:28:00,
2013-06-06 04:33:00,55.9,54.9,30.17,East,87,0.0,0.0,96,0.00,,,0.00,meteohub,2013-06-06 08:33:00,
2013-06-06 04:38:00,56.1,55.2,30.17,East,87,0.0,0.0,97,0.00,,,0.00,meteohub,2013-06-06 08:38:00,
2013-06-06 04:43:00,56.1,55.2,30.17,East,88,0.0,0.0,97,0.00,,,0.00,meteohub,2013-06-06 08:43:00,
2013-06-06 04:48:00,56.5,55.6,30.17,East,87,0.0,0.0,97,0.00,,,0.00,meteohub,2013-06-06 08:48:00,
2013-06-06 04:53:00,56.7,55.8,30.17,East,88,0.0,0.0,97,0.00,,,0.00,meteohub,2013-06-06 08:53:00,
2013-06-06 04:58:00,56.8,55.9,30.18,East,88,0.0,0.0,97,0.00,,,0.00,meteohub,2013-06-06 08:58:00,
2013-06-06 05:03:00,57.0,56.1,30.18,East,87,0.0,0.0,97,0.00,,,0.00,meteohub,2013-06-06 09:03:00,
2013-06-06 05:08:00,57.6,56.7,30.17,East,87,0.0,0.0,97,0.00,,,0.00,meteohub,2013-06-06 09:08:00,
2013-06-06 05:13:00,57.7,56.8,30.17,East,87,0.0,0.0,97,0.00,,,0.00,meteohub,2013-06-06 09:13:00,
2013-06-06 05:18:00,57.9,57.0,30.17,ESE,119,0.0,0.0,97,0.00,,,0.00,meteohub,2013-06-06 09:18:00,
2013-06-06 05:23:00,57.9,57.0,30.17,SSE,158,0.0,1.0,97,0.00,,,0.00,meteohub,2013-06-06 09:23:00,
2013-06-06 05:28:00,57.9,57.0,30.17,ESE,115,0.0,1.0,97,0.00,,,0.00,meteohub,2013-06-06 09:28:00,
2013-06-06 05:33:00,58.1,57.2,30.17,ESE,113,0.0,1.0,97,0.00,,,0.00,meteohub,2013-06-06 09:33:00,
2013-06-06 05:38:00,58.1,57.2,30.17,ESE,113,0.0,1.0,97,0.00,,,0.00,meteohub,2013-06-06 09:38:00,
2013-06-06 05:43:00,57.9,57.0,30.17,ESE,115,0.0,1.0,97,0.00,,,0.00,meteohub,2013-06-06 09:43:00,
2013-06-06 05:48:00,57.9,57.0,30.16,ESE,115,0.0,1.0,97,0.00,,,0.00,meteohub,2013-06-06 09:48:00,
2013-06-06 05:53:00,57.9,57.0,30.16,ESE,110,0.0,1.0,97,0.00,,,0.00,meteohub,2013-06-06 09:53:00,
2013-06-06 05:58:00,57.9,57.0,30.16,ESE,112,0.0,1.0,97,0.00,,,0.00,meteohub,2013-06-06 09:58:00,
2013-06-06 06:03:00,57.9,57.0,30.17,ESE,112,0.0,1.0,97,0.00,,,0.00,meteohub,2013-06-06 10:03:00,
2013-06-06 06:08:00,57.9,57.0,30.17,ESE,111,0.0,1.0,97,0.00,,,0.00,meteohub,2013-06-06 10:08:00,
2013-06-06 06:13:00,57.9,57.0,30.17,East,93,0.0,2.0,97,0.00,,,0.00,meteohub,2013-06-06 10:13:00,
2013-06-06 06:18:00,57.9,57.0,30.17,East,91,0.0,2.0,97,0.00,,,0.00,meteohub,2013-06-06 10:18:00,
2013-06-06 06:23:00,57.9,57.0,30.17,ESE,110,0.0,2.0,97,0.00,,,0.00,meteohub,2013-06-06 10:23:00,
2013-06-06 06:28:00,57.9,57.0,30.16,ESE,110,0.0,1.0,97,0.00,,,0.00,meteohub,2013-06-06 10:28:00,
2013-06-06 06:33:00,57.9,57.0,30.16,ESE,110,0.0,1.0,97,0.00,,,0.00,meteohub,2013-06-06 10:33:00,
2013-06-06 06:38:00,57.9,57.0,30.16,ESE,110,0.0,1.0,97,0.00,,,0.00,meteohub,2013-06-06 10:38:00,
2013-06-06 06:43:00,57.9,57.0,30.16,SE,124,0.0,1.0,97,0.00,,,0.00,meteohub,2013-06-06 10:43:00,
2013-06-06 06:48:00,58.1,57.2,30.16,ESE,113,0.0,1.0,97,0.00,,,0.00,meteohub,2013-06-06 10:48:00,
2013-06-06 06:53:00,58.3,57.4,30.16,ESE,113,0.0,1.0,97,0.00,,,0.00,meteohub,2013-06-06 10:53:00,
2013-06-06 06:58:00,58.5,57.6,30.17,ESE,111,0.0,1.0,97,0.00,,,0.00,meteohub,2013-06-06 10:58:00,
2013-06-06 07:03:00,58.6,57.7,30.17,ESE,112,0.0,1.0,97,0.00,,,0.00,meteohub,2013-06-06 11:03:00,
2013-06-06 07:08:00,58.8,57.9,30.17,ESE,112,0.0,1.0,97,0.00,,,0.00,meteohub,2013-06-06 11:08:00,
2013-06-06 07:13:00,59.2,58.3,30.17,SW,229,0.0,1.0,97,0.00,,,0.00,meteohub,2013-06-06 11:13:00,
2013-06-06 07:18:00,59.2,58.1,30.17,SSE,153,0.0,1.0,96,0.00,,,0.00,meteohub,2013-06-06 11:18:00,
2013-06-06 07:23:00,59.5,58.5,30.17,SSW,204,0.0,1.0,96,0.00,,,0.00,meteohub,2013-06-06 11:23:00,
2013-06-06 07:28:00,59.7,58.6,30.17,SSE,150,0.0,1.0,96,0.00,,,0.00,meteohub,2013-06-06 11:28:00,
2013-06-06 07:33:00,60.1,59.0,30.17,SSE,150,0.0,1.0,96,0.00,,,0.00,meteohub,2013-06-06 11:33:00,
2013-06-06 07:38:00,60.3,58.8,30.17,SSE,160,0.0,1.0,95,0.00,,,0.00,meteohub,2013-06-06 11:38:00,
2013-06-06 07:43:00,60.4,59.0,30.17,SSE,160,0.0,1.0,95,0.00,,,0.00,meteohub,2013-06-06 11:43:00,
2013-06-06 07:48:00,60.6,58.8,30.17,East,89,1.0,1.0,94,0.00,,,0.00,meteohub,2013-06-06 11:48:00,
2013-06-06 07:53:00,60.8,58.8,30.17,East,101,2.0,2.0,93,0.00,,,0.00,meteohub,2013-06-06 11:53:00,
2013-06-06 07:58:00,61.2,59.2,30.17,ESE,105,1.0,2.0,93,0.00,,,0.00,meteohub,2013-06-06 11:58:00,
2013-06-06 08:03:00,61.2,58.8,30.17,SE,125,1.0,2.0,92,0.00,,,0.00,meteohub,2013-06-06 12:03:00,
2013-06-06 08:08:00,61.5,59.2,30.17,ESE,123,1.0,2.0,92,0.00,,,0.00,meteohub,2013-06-06 12:08:00,
2013-06-06 08:13:00,61.9,59.2,30.17,South,181,0.0,2.0,91,0.00,,,0.00,meteohub,2013-06-06 12:13:00,
2013-06-06 08:18:00,62.1,59.2,30.17,East,84,1.0,1.0,90,0.00,,,0.00,meteohub,2013-06-06 12:18:00,
2013-06-06 08:23:00,62.4,59.4,30.17,ESE,108,1.0,2.0,90,0.00,,,0.00,meteohub,2013-06-06 12:23:00,
2013-06-06 08:28:00,62.6,59.4,30.17,SSW,202,0.0,2.0,89,0.00,,,0.00,meteohub,2013-06-06 12:28:00,
2013-06-06 08:33:00,62.6,59.0,30.17,East,83,1.0,3.0,88,0.00,,,0.00,meteohub,2013-06-06 12:33:00,
2013-06-06 08:38:00,62.8,59.2,30.17,ESE,117,0.0,3.0,88,0.00,,,0.00,meteohub,2013-06-06 12:38:00,
2013-06-06 08:43:00,63.0,59.0,30.17,ESE,104,0.0,3.0,87,0.00,,,0.00,meteohub,2013-06-06 12:43:00,
2013-06-06 08:48:00,63.3,59.0,30.17,SE,136,0.0,3.0,86,0.00,,,0.00,meteohub,2013-06-06 12:48:00,
2013-06-06 08:53:00,63.9,59.2,30.17,NE,43,1.0,3.0,85,0.00,,,0.00,meteohub,2013-06-06 12:53:00,
2013-06-06 08:58:00,63.9,59.0,30.17,East,100,0.0,2.0,84,0.00,,,0.00,meteohub,2013-06-06 12:58:00,
2013-06-06 09:03:00,64.0,58.8,30.17,SW,215,0.0,3.0,83,0.00,,,0.00,meteohub,2013-06-06 13:03:00,
2013-06-06 09:08:00,64.2,59.0,30.16,SSE,157,0.0,3.0,83,0.00,,,0.00,meteohub,2013-06-06 13:08:00,
2013-06-06 09:13:00,64.8,59.2,30.17,SSW,208,1.0,3.0,82,0.00,,,0.00,meteohub,2013-06-06 13:13:00,
2013-06-06 09:18:00,65.1,58.8,30.17,SE,129,1.0,3.0,80,0.00,,,0.00,meteohub,2013-06-06 13:18:00,
2013-06-06 09:24:00,65.7,59.0,30.17,East,91,2.0,3.0,79,0.00,,,0.00,meteohub,2013-06-06 13:24:00,
2013-06-06 09:29:00,66.0,59.0,30.16,ESE,118,1.0,3.0,78,0.00,,,0.00,meteohub,2013-06-06 13:29:00,
2013-06-06 09:34:00,66.0,59.0,30.16,ESE,119,2.0,4.0,78,0.00,,,0.00,meteohub,2013-06-06 13:34:00,
2013-06-06 09:39:00,66.2,59.2,30.16,South,179,1.0,4.0,78,0.00,,,0.00,meteohub,2013-06-06 13:39:00,
2013-06-06 09:44:00,66.2,59.2,30.16,SSE,166,1.0,4.0,78,0.00,,,0.00,meteohub,2013-06-06 13:44:00,
2013-06-06 09:48:00,66.7,59.7,30.15,ESE,113,1.0,4.0,78,0.00,,,0.00,meteohub,2013-06-06 13:48:00,
2013-06-06 09:54:00,67.1,59.7,30.15,SSW,201,1.0,3.0,77,0.00,,,0.00,meteohub,2013-06-06 13:54:00,
2013-06-06 09:59:00,67.8,59.9,30.15,South,186,3.0,4.0,76,0.00,,,0.00,meteohub,2013-06-06 13:59:00,
2013-06-06 10:04:00,68.0,60.1,30.15,SSW,212,0.0,4.0,76,0.00,,,0.00,meteohub,2013-06-06 14:04:00,
2013-06-06 10:09:00,68.4,60.4,30.15,SE,132,1.0,4.0,76,0.00,,,0.00,meteohub,2013-06-06 14:09:00,
2013-06-06 10:14:00,68.5,59.5,30.15,SSE,159,1.0,4.0,73,0.00,,,0.00,meteohub,2013-06-06 14:14:00,
2013-06-06 10:19:00,69.1,60.1,30.15,ESE,108,2.0,6.0,73,0.00,,,0.00,meteohub,2013-06-06 14:19:00,
2013-06-06 10:24:00,68.7,59.7,30.15,East,99,2.0,6.0,73,0.00,,,0.00,meteohub,2013-06-06 14:24:00,
2013-06-06 10:29:00,69.1,60.4,30.14,ESE,108,3.0,6.0,74,0.00,,,0.00,meteohub,2013-06-06 14:29:00,
2013-06-06 10:34:00,69.4,60.1,30.14,East,90,1.0,5.0,72,0.00,,,0.00,meteohub,2013-06-06 14:34:00,
2013-06-06 10:39:00,69.6,59.4,30.14,East,85,1.0,5.0,70,0.00,,,0.00,meteohub,2013-06-06 14:39:00,
2013-06-06 10:44:00,70.0,60.1,30.14,East,101,3.0,4.0,71,0.00,,,0.00,meteohub,2013-06-06 14:44:00,
2013-06-06 10:49:00,69.6,59.7,30.14,ESE,115,1.0,5.0,71,0.00,,,0.00,meteohub,2013-06-06 14:49:00,
2013-06-06 10:54:00,69.4,60.1,30.14,ESE,108,2.0,5.0,72,0.00,,,0.00,meteohub,2013-06-06 14:54:00,
2013-06-06 10:59:00,69.8,60.8,30.14,ESE,108,2.0,5.0,73,0.00,,,0.00,meteohub,2013-06-06 14:59:00,
2013-06-06 11:04:00,70.3,61.3,30.14,SE,138,1.0,4.0,73,0.00,,,0.00,meteohub,2013-06-06 15:04:00,
2013-06-06 11:09:00,70.7,61.2,30.13,ENE,67,5.0,5.0,72,0.00,,,0.00,meteohub,2013-06-06 15:09:00,
2013-06-06 11:14:00,70.2,61.2,30.13,ENE,71,4.0,6.0,73,0.00,,,0.00,meteohub,2013-06-06 15:14:00,
2013-06-06 11:19:00,70.0,60.6,30.13,NE,46,2.0,6.0,72,0.00,,,0.00,meteohub,2013-06-06 15:19:00,
2013-06-06 11:24:00,69.8,60.8,30.14,SW,236,0.0,6.0,73,0.00,,,0.00,meteohub,2013-06-06 15:24:00,
2013-06-06 11:29:00,70.0,61.0,30.14,East,95,2.0,5.0,73,0.00,,,0.00,meteohub,2013-06-06 15:29:00,
2013-06-06 11:34:00,70.3,59.7,30.14,ESE,106,1.0,5.0,69,0.00,,,0.00,meteohub,2013-06-06 15:34:00,
2013-06-06 11:39:00,70.3,58.5,30.14,East,91,4.0,5.0,66,0.00,,,0.00,meteohub,2013-06-06 15:39:00,
2013-06-06 11:44:00,70.7,58.8,30.13,East,95,1.0,6.0,66,0.00,,,0.00,meteohub,2013-06-06 15:44:00,
2013-06-06 11:49:00,70.9,57.2,30.13,ESE,102,3.0,6.0,62,0.00,,,0.00,meteohub,2013-06-06 15:49:00,
2013-06-06 11:54:00,70.5,56.8,30.13,ENE,72,3.0,7.0,62,0.00,,,0.00,meteohub,2013-06-06 15:54:00,
2013-06-06 11:59:00,70.5,56.8,30.13,SE,126,2.0,7.0,62,0.00,,,0.00,meteohub,2013-06-06 15:59:00,
2013-06-06 12:04:00,71.1,55.9,30.13,East,99,3.0,7.0,59,0.00,,,0.00,meteohub,2013-06-06 16:04:00,
2013-06-06 12:09:00,70.5,55.9,30.13,ENE,71,2.0,6.0,60,0.00,,,0.00,meteohub,2013-06-06 16:09:00,
2013-06-06 12:14:00,70.3,55.4,30.13,East,82,4.0,7.0,59,0.00,,,0.00,meteohub,2013-06-06 16:14:00,
2013-06-06 12:19:00,70.0,55.4,30.13,East,96,2.0,7.0,60,0.00,,,0.00,meteohub,2013-06-06 16:19:00,
2013-06-06 12:24:00,70.0,55.0,30.13,ESE,112,1.0,7.0,59,0.00,,,0.00,meteohub,2013-06-06 16:24:00,
2013-06-06 12:29:00,70.2,55.2,30.12,NE,48,2.0,7.0,59,0.00,,,0.00,meteohub,2013-06-06 16:29:00,
2013-06-06 12:34:00,70.0,55.0,30.12,SE,125,4.0,7.0,59,0.00,,,0.00,meteohub,2013-06-06 16:34:00,
2013-06-06 12:39:00,70.3,55.8,30.12,East,96,4.0,9.0,60,0.00,,,0.00,meteohub,2013-06-06 16:39:00,
2013-06-06 12:44:00,70.3,56.3,30.12,East,94,4.0,9.0,61,0.00,,,0.00,meteohub,2013-06-06 16:44:00,
2013-06-06 12:49:00,70.5,56.8,30.12,ESE,105,1.0,9.0,62,0.00,,,0.00,meteohub,2013-06-06 16:49:00,
2013-06-06 12:54:00,70.3,58.1,30.13,SSE,155,6.0,9.0,65,0.00,,,0.00,meteohub,2013-06-06 16:54:00,
2013-06-06 12:59:00,69.6,57.7,30.13,ENE,78,3.0,9.0,66,0.00,,,0.00,meteohub,2013-06-06 16:59:00,
2013-06-06 13:04:00,69.3,58.3,30.12,SSE,148,1.0,9.0,68,0.00,,,0.00,meteohub,2013-06-06 17:04:00,
2013-06-06 13:09:00,69.6,59.4,30.13,ESE,104,2.0,9.0,70,0.00,,,0.00,meteohub,2013-06-06 17:09:00,
2013-06-06 13:14:00,69.6,59.0,30.13,ESE,112,2.0,7.0,69,0.00,,,0.00,meteohub,2013-06-06 17:14:00,
2013-06-06 13:19:00,69.4,58.8,30.13,East,96,2.0,7.0,69,0.00,,,0.00,meteohub,2013-06-06 17:19:00,
2013-06-06 13:24:00,69.3,59.0,30.13,SSE,150,1.0,5.0,70,0.00,,,0.00,meteohub,2013-06-06 17:24:00,
2013-06-06 13:29:00,69.4,59.5,30.12,East,84,3.0,5.0,71,0.00,,,0.00,meteohub,2013-06-06 17:29:00,
2013-06-06 13:34:00,69.3,58.6,30.12,East,100,3.0,5.0,69,0.00,,,0.00,meteohub,2013-06-06 17:34:00,
2013-06-06 13:39:00,69.4,59.2,30.12,ESE,105,1.0,7.0,70,0.00,,,0.00,meteohub,2013-06-06 17:39:00,
2013-06-06 13:44:00,70.2,59.9,30.12,SSW,205,1.0,7.0,70,0.00,,,0.00,meteohub,2013-06-06 17:44:00,
2013-06-06 13:49:00,70.9,59.7,30.12,ESE,115,1.0,7.0,68,0.00,,,0.00,meteohub,2013-06-06 17:49:00,
2013-06-06 13:54:00,70.2,59.5,30.11,East,89,3.0,7.0,69,0.00,,,0.00,meteohub,2013-06-06 17:54:00,
2013-06-06 13:59:00,69.6,59.7,30.11,SE,134,1.0,7.0,71,0.00,,,0.00,meteohub,2013-06-06 17:59:00,
2013-06-06 14:04:00,69.6,60.3,30.12,ESE,115,2.0,7.0,72,0.00,,,0.00,meteohub,2013-06-06 18:04:00,
2013-06-06 14:09:00,69.8,59.9,30.12,ESE,109,2.0,8.0,71,0.00,,,0.00,meteohub,2013-06-06 18:09:00,
2013-06-06 14:14:00,70.2,60.6,30.11,ESE,108,3.0,8.0,72,0.00,,,0.00,meteohub,2013-06-06 18:14:00,
2013-06-06 14:19:00,70.2,60.3,30.11,ESE,102,4.0,8.0,71,0.00,,,0.00,meteohub,2013-06-06 18:19:00,
2013-06-06 14:24:00,69.8,59.9,30.11,ESE,120,4.0,7.0,71,0.00,,,0.00,meteohub,2013-06-06 18:24:00,
2013-06-06 14:29:00,69.4,60.4,30.11,ESE,108,1.0,7.0,73,0.00,,,0.00,meteohub,2013-06-06 18:29:00,
2013-06-06 14:34:00,69.1,60.1,30.11,ENE,71,3.0,7.0,73,0.00,,,0.00,meteohub,2013-06-06 18:34:00,
2013-06-06 14:39:00,69.1,60.4,30.10,SE,131,2.0,8.0,74,0.00,,,0.00,meteohub,2013-06-06 18:39:00,
2013-06-06 14:44:00,68.7,60.1,30.10,SE,124,2.0,8.0,74,0.00,,,0.00,meteohub,2013-06-06 18:44:00,
2013-06-06 14:49:00,68.5,60.3,30.11,ESE,117,1.0,8.0,75,0.00,,,0.00,meteohub,2013-06-06 18:49:00,
2013-06-06 14:54:00,68.5,60.6,30.11,East,101,5.0,8.0,76,0.00,,,0.00,meteohub,2013-06-06 18:54:00,
2013-06-06 14:59:00,68.4,60.1,30.11,East,91,2.0,5.0,75,0.00,,,0.00,meteohub,2013-06-06 18:59:00,
2013-06-06 15:04:00,67.8,60.3,30.11,ESE,112,4.0,6.0,77,0.00,,,0.00,meteohub,2013-06-06 19:04:00,
2013-06-06 15:09:00,67.6,60.3,30.11,ESE,122,1.0,7.0,77,0.00,,,0.00,meteohub,2013-06-06 19:09:00,
2013-06-06 15:15:00,67.6,60.6,30.11,East,99,0.0,7.0,78,0.00,,,0.00,meteohub,2013-06-06 19:15:00,
2013-06-06 15:20:00,67.6,60.6,30.11,East,95,5.0,7.0,78,0.00,,,0.00,meteohub,2013-06-06 19:20:00,
2013-06-06 15:25:00,67.5,60.4,30.11,SE,127,1.0,7.0,78,0.00,,,0.00,meteohub,2013-06-06 19:25:00,
2013-06-06 15:30:00,67.5,60.4,30.10,East,95,2.0,6.0,78,0.00,,,0.00,meteohub,2013-06-06 19:30:00,
2013-06-06 15:34:00,67.5,60.8,30.10,ESE,115,0.0,6.0,79,0.00,,,0.00,meteohub,2013-06-06 19:34:00,
2013-06-06 15:39:00,67.5,60.8,30.10,SE,146,1.0,6.0,79,0.00,,,0.00,meteohub,2013-06-06 19:39:00,
2013-06-06 15:44:00,67.3,60.6,30.10,East,89,3.0,4.0,79,0.00,,,0.00,meteohub,2013-06-06 19:44:00,
2013-06-06 15:49:00,67.3,61.0,30.10,SE,136,1.0,5.0,80,0.00,,,0.00,meteohub,2013-06-06 19:49:00,
2013-06-06 15:54:00,67.3,61.0,30.10,ESE,121,3.0,5.0,80,0.00,,,0.00,meteohub,2013-06-06 19:54:00,
2013-06-06 15:59:00,67.3,61.2,30.10,ENE,63,1.0,5.0,81,0.00,,,0.00,meteohub,2013-06-06 19:59:00,
2013-06-06 16:04:00,66.9,61.0,30.10,SE,124,2.0,5.0,81,0.00,,,0.00,meteohub,2013-06-06 20:04:00,
2013-06-06 16:09:00,66.9,61.0,30.09,East,96,0.0,5.0,81,0.00,,,0.00,meteohub,2013-06-06 20:09:00,
2013-06-06 16:14:00,66.7,60.8,30.09,ESE,117,1.0,5.0,81,0.00,,,0.00,meteohub,2013-06-06 20:14:00,
2013-06-06 16:19:00,66.6,61.0,30.09,East,92,0.0,5.0,82,0.00,,,0.00,meteohub,2013-06-06 20:19:00,
2013-06-06 16:24:00,66.6,61.0,30.09,ENE,78,2.0,4.0,82,0.00,,,0.00,meteohub,2013-06-06 20:24:00,
2013-06-06 16:29:00,66.6,61.2,30.09,West,263,1.0,4.0,83,0.00,,,0.00,meteohub,2013-06-06 20:29:00,
2013-06-06 16:34:00,66.6,61.2,30.09,East,87,2.0,4.0,83,0.00,,,0.00,meteohub,2013-06-06 20:34:00,
2013-06-06 16:39:00,66.4,61.0,30.09,East,91,2.0,3.0,83,0.00,,,0.00,meteohub,2013-06-06 20:39:00,
2013-06-06 16:44:00,66.2,60.8,30.09,SE,126,2.0,4.0,83,0.00,,,0.00,meteohub,2013-06-06 20:44:00,
2013-06-06 16:49:00,66.2,61.2,30.09,East,91,2.0,4.0,84,0.00,,,0.00,meteohub,2013-06-06 20:49:00,
2013-06-06 16:54:00,66.2,61.2,30.09,East,98,2.0,4.0,84,0.00,,,0.00,meteohub,2013-06-06 20:54:00,
2013-06-06 16:59:00,66.0,61.0,30.09,SE,145,1.0,4.0,84,0.00,,,0.00,meteohub,2013-06-06 20:59:00,
2013-06-06 17:04:00,66.2,61.2,30.09,ESE,104,2.0,4.0,84,0.00,,,0.00,meteohub,2013-06-06 21:04:00,
2013-06-06 17:09:00,66.0,61.0,30.09,East,91,2.0,4.0,84,0.00,,,0.00,meteohub,2013-06-06 21:09:00,
2013-06-06 17:14:00,65.8,60.8,30.08,East,82,2.0,4.0,84,0.00,,,0.00,meteohub,2013-06-06 21:14:00,
2013-06-06 17:19:00,65.7,61.0,30.08,ENE,72,3.0,4.0,85,0.00,,,0.00,meteohub,2013-06-06 21:19:00,
2013-06-06 17:24:00,65.5,60.8,30.08,East,93,2.0,4.0,85,0.00,,,0.00,meteohub,2013-06-06 21:24:00,
2013-06-06 17:29:00,65.5,60.8,30.08,East,98,3.0,4.0,85,0.00,,,0.00,meteohub,2013-06-06 21:29:00,
2013-06-06 17:34:00,65.5,60.8,30.07,SE,126,1.0,4.0,85,0.00,,,0.00,meteohub,2013-06-06 21:34:00,
2013-06-06 17:39:00,65.5,60.8,30.07,East,93,1.0,6.0,85,0.00,,,0.00,meteohub,2013-06-06 21:39:00,
2013-06-06 17:44:00,65.5,60.8,30.07,East,81,1.0,6.0,85,0.00,,,0.00,meteohub,2013-06-06 21:44:00,
2013-06-06 17:49:00,65.3,61.0,30.07,SSE,149,1.0,6.0,86,0.00,,,0.00,meteohub,2013-06-06 21:49:00,
2013-06-06 17:54:00,65.1,60.8,30.07,ESE,121,1.0,4.0,86,0.00,,,0.00,meteohub,2013-06-06 21:54:00,
2013-06-06 17:59:00,65.1,61.2,30.07,East,90,2.0,4.0,87,0.00,,,0.00,meteohub,2013-06-06 21:59:00,
2013-06-06 18:04:00,64.9,61.0,30.07,East,92,1.0,5.0,87,0.00,,,0.00,meteohub,2013-06-06 22:04:00,
2013-06-06 18:09:00,64.8,61.2,30.07,East,89,1.0,5.0,88,0.00,,,0.00,meteohub,2013-06-06 22:09:00,
2013-06-06 18:15:00,64.8,61.2,30.07,ESE,112,2.0,5.0,88,0.00,,,0.00,meteohub,2013-06-06 22:15:00,
2013-06-06 18:19:00,64.6,61.3,30.07,East,80,2.0,3.0,89,0.00,,,0.00,meteohub,2013-06-06 22:19:00,
2013-06-06 18:25:00,64.6,61.3,30.07,SSE,157,2.0,3.0,89,0.00,,,0.00,meteohub,2013-06-06 22:25:00,
2013-06-06 18:30:00,64.2,61.0,30.07,SE,124,1.0,3.0,89,0.00,,,0.00,meteohub,2013-06-06 22:30:00,
2013-06-06 18:35:00,64.2,61.2,30.08,ESE,115,1.0,5.0,90,0.00,,,0.00,meteohub,2013-06-06 22:35:00,
2013-06-06 18:40:00,64.0,61.0,30.08,SE,129,0.0,5.0,90,0.00,,,0.00,meteohub,2013-06-06 22:40:00,
2013-06-06 18:45:00,63.9,61.2,30.07,SE,134,2.0,5.0,91,0.00,,,0.00,meteohub,2013-06-06 22:45:00,
2013-06-06 18:50:00,63.7,61.0,30.07,ENE,74,2.0,4.0,91,0.00,,,0.00,meteohub,2013-06-06 22:50:00,
2013-06-06 18:55:00,63.7,61.0,30.07,ESE,112,1.0,4.0,91,0.00,,,0.00,meteohub,2013-06-06 22:55:00,
2013-06-06 19:00:00,63.5,61.2,30.07,East,91,2.0,4.0,92,0.00,,,0.00,meteohub,2013-06-06 23:00:00,
2013-06-06 19:05:00,63.3,61.0,30.08,ESE,115,3.0,4.0,92,0.00,,,0.00,meteohub,2013-06-06 23:05:00,
2013-06-06 19:10:00,63.3,61.0,30.08,ESE,103,2.0,3.0,92,0.00,,,0.00,meteohub,2013-06-06 23:10:00,
2013-06-06 19:15:00,63.3,61.0,30.08,ESE,122,0.0,3.0,92,0.00,,,0.00,meteohub,2013-06-06 23:15:00,
2013-06-06 19:20:00,63.3,61.0,30.08,SE,127,0.0,3.0,92,0.00,,,0.00,meteohub,2013-06-06 23:20:00,
2013-06-06 19:25:00,63.3,61.0,30.08,ESE,109,1.0,4.0,92,0.00,,,0.00,meteohub,2013-06-06 23:25:00,
2013-06-06 19:30:00,63.3,61.0,30.08,SE,133,0.0,4.0,92,0.00,,,0.00,meteohub,2013-06-06 23:30:00,
2013-06-06 19:35:00,63.3,61.0,30.08,ESE,115,1.0,4.0,92,0.00,,,0.00,meteohub,2013-06-06 23:35:00,
2013-06-06 19:40:00,63.3,61.0,30.08,ESE,113,1.0,4.0,92,0.00,,,0.00,meteohub,2013-06-06 23:40:00,
2013-06-06 19:45:00,63.3,61.0,30.08,East,92,0.0,3.0,92,0.01,,,0.01,meteohub,2013-06-06 23:45:00,
2013-06-06 19:50:00,63.3,61.3,30.08,ESE,117,0.0,3.0,93,0.01,,,0.01,meteohub,2013-06-06 23:50:00,
2013-06-06 19:55:00,63.1,61.2,30.08,SE,124,0.0,2.0,93,0.01,,,0.01,meteohub,2013-06-06 23:55:00,
2013-06-06 20:00:00,63.1,61.2,30.08,SE,139,1.0,2.0,93,0.01,,,0.01,meteohub,2013-06-07 00:00:00,
2013-06-06 20:05:00,63.1,61.2,30.08,ESE,103,0.0,2.0,93,0.01,,,0.01,meteohub,2013-06-07 00:05:00,
2013-06-06 20:10:00,63.0,61.0,30.08,ESE,115,1.0,3.0,93,0.01,,,0.01,meteohub,2013-06-07 00:10:00,
2013-06-06 20:15:00,63.0,61.2,30.08,ESE,108,2.0,3.0,94,0.01,,,0.01,meteohub,2013-06-07 00:15:00,
2013-06-06 20:20:00,63.0,61.2,30.07,ESE,106,3.0,3.0,94,0.01,,,0.01,meteohub,2013-06-07 00:20:00,
2013-06-06 20:25:00,62.8,61.0,30.06,East,101,1.0,4.0,94,0.02,,,0.02,meteohub,2013-06-07 00:25:00,
2013-06-06 20:30:00,62.8,61.0,30.06,ESE,113,1.0,4.0,94,0.02,,,0.02,meteohub,2013-06-07 00:30:00,
2013-06-06 20:35:00,62.8,61.0,30.06,ESE,110,2.0,4.0,94,0.03,,,0.03,meteohub,2013-06-07 00:35:00,
2013-06-06 20:40:00,62.8,61.0,30.06,ESE,119,2.0,4.0,94,0.03,,,0.03,meteohub,2013-06-07 00:40:00,
2013-06-06 20:45:00,62.6,60.8,30.06,ESE,108,1.0,4.0,94,0.03,,,0.04,meteohub,2013-06-07 00:45:00,
2013-06-06 20:50:00,62.8,61.3,30.06,ESE,105,3.0,4.0,95,0.03,,,0.04,meteohub,2013-06-07 00:50:00,
2013-06-06 20:55:00,62.6,61.2,30.06,ESE,113,1.0,4.0,95,0.03,,,0.04,meteohub,2013-06-07 00:55:00,
2013-06-06 21:00:00,62.4,61.0,30.06,East,92,2.0,3.0,95,0.04,,,0.05,meteohub,2013-06-07 01:00:00,
2013-06-06 21:05:00,62.4,61.0,30.06,East,95,0.0,3.0,95,0.04,,,0.05,meteohub,2013-06-07 01:05:00,
2013-06-06 21:10:00,62.4,61.0,30.07,ESE,110,1.0,2.0,95,0.04,,,0.05,meteohub,2013-06-07 01:10:00,
2013-06-06 21:15:00,62.4,61.0,30.07,ESE,108,1.0,2.0,95,0.05,,,0.06,meteohub,2013-06-07 01:15:00,
2013-06-06 21:20:00,62.4,61.0,30.07,SE,129,0.0,2.0,95,0.05,,,0.06,meteohub,2013-06-07 01:20:00,
2013-06-06 21:25:00,62.4,61.0,30.07,SSE,155,2.0,4.0,95,0.05,,,0.07,meteohub,2013-06-07 01:25:00,
2013-06-06 21:30:00,62.2,60.8,30.07,East,87,0.0,4.0,95,0.05,,,0.07,meteohub,2013-06-07 01:30:00,
2013-06-06 21:35:00,62.2,60.8,30.07,ESE,121,0.0,4.0,95,0.04,,,0.07,meteohub,2013-06-07 01:35:00,
2013-06-06 21:40:00,62.2,60.8,30.08,East,100,0.0,3.0,95,0.05,,,0.08,meteohub,2013-06-07 01:40:00,
2013-06-06 21:45:00,62.2,61.2,30.08,ESE,110,2.0,2.0,96,0.04,,,0.08,meteohub,2013-06-07 01:45:00,
2013-06-06 21:50:00,62.2,60.8,30.08,ESE,111,0.0,2.0,95,0.05,,,0.09,meteohub,2013-06-07 01:50:00,
2013-06-06 21:55:00,62.2,61.2,30.07,ESE,113,1.0,2.0,96,0.04,,,0.09,meteohub,2013-06-07 01:55:00,
2013-06-06 22:00:00,62.2,61.2,30.07,SE,128,1.0,3.0,96,0.05,,,0.10,meteohub,2013-06-07 02:00:00,
2013-06-06 22:06:00,62.1,61.0,30.07,East,99,0.0,3.0,96,0.05,,,0.10,meteohub,2013-06-07 02:06:00,
2013-06-06 22:11:00,62.1,61.0,30.07,East,89,0.0,3.0,96,0.06,,,0.11,meteohub,2013-06-07 02:11:00,
2013-06-06 22:16:00,61.9,60.8,30.07,ESE,115,0.0,3.0,96,0.05,,,0.11,meteohub,2013-06-07 02:16:00,
2013-06-06 22:21:00,61.9,60.8,30.07,ESE,105,1.0,4.0,96,0.06,,,0.12,meteohub,2013-06-07 02:21:00,
2013-06-06 22:26:00,61.9,60.8,30.06,ESE,114,1.0,4.0,96,0.06,,,0.13,meteohub,2013-06-07 02:26:00,
2013-06-06 22:31:00,61.9,60.8,30.06,ESE,108,1.0,4.0,96,0.06,,,0.13,meteohub,2013-06-07 02:31:00,
2013-06-06 22:36:00,61.9,60.8,30.06,ESE,105,3.0,4.0,96,0.07,,,0.13,meteohub,2013-06-07 02:36:00,
2013-06-06 22:41:00,61.9,60.8,30.06,East,91,2.0,3.0,96,0.06,,,0.14,meteohub,2013-06-07 02:41:00,
2013-06-06 22:46:00,61.9,60.8,30.05,SE,136,1.0,3.0,96,0.07,,,0.15,meteohub,2013-06-07 02:46:00,
2013-06-06 22:51:00,61.9,60.8,30.05,ESE,115,1.0,3.0,96,0.07,,,0.16,meteohub,2013-06-07 02:51:00,
2013-06-06 22:56:00,61.9,60.8,30.05,ESE,111,0.0,4.0,96,0.07,,,0.16,meteohub,2013-06-07 02:56:00,
2013-06-06 23:01:00,61.9,60.8,30.05,ESE,112,0.0,4.0,96,0.07,,,0.17,meteohub,2013-06-07 03:01:00,
2013-06-06 23:06:00,61.7,60.6,30.04,ESE,102,1.0,4.0,96,0.06,,,0.17,meteohub,2013-06-07 03:06:00,
2013-06-06 23:11:00,61.9,60.8,30.04,ESE,115,0.0,3.0,96,0.06,,,0.17,meteohub,2013-06-07 03:11:00,
2013-06-06 23:16:00,61.9,61.0,30.04,ESE,109,0.0,3.0,97,0.06,,,0.17,meteohub,2013-06-07 03:16:00,
2013-06-06 23:21:00,61.9,61.0,30.04,SE,129,0.0,3.0,97,0.06,,,0.18,meteohub,2013-06-07 03:21:00,
2013-06-06 23:26:00,61.9,60.8,30.04,ESE,103,2.0,4.0,96,0.05,,,0.18,meteohub,2013-06-07 03:26:00,
2013-06-06 23:31:00,61.7,60.6,30.04,East,83,0.0,4.0,96,0.06,,,0.19,meteohub,2013-06-07 03:31:00,
2013-06-06 23:36:00,61.5,60.4,30.05,ESE,119,0.0,4.0,96,0.05,,,0.19,meteohub,2013-06-07 03:36:00,
2013-06-06 23:42:00,61.5,60.4,30.05,ESE,112,1.0,3.0,96,0.05,,,0.19,meteohub,2013-06-07 03:42:00,
2013-06-06 23:47:00,61.5,60.4,30.05,East,100,0.0,4.0,96,0.04,,,0.19,meteohub,2013-06-07 03:47:00,
2013-06-06 23:52:00,61.5,60.4,30.05,SSW,195,0.0,4.0,96,0.03,,,0.19,meteohub,2013-06-07 03:52:00,
2013-06-06 23:57:00,61.5,60.6,30.05,SE,139,0.0,4.0,97,0.04,,,0.20,meteohub,2013-06-07 03:57:00,